Forside
METAR-TAF:

METAR-TAF

Lufthavne :

Newton Municipal Airport

Newton, Iowa, USA

Breddekreds: 41-41N, længdekreds: 093-01W, højde: 290 m

Aktuelle vejr

Denne rapport blev lavet for 33 minutter siden, kl. 08:15 UTC
Vind 9 kt fra sydsydvest
Temperatur 15°C
Fugtighed 63%
Tryk 1014 hPa
Sigt: 16.1 km
skyfri

METAR: KTNU 260815Z AUTO 21009KT 10SM CLR 15/08 A2993 RMK A01

Tid: 03:48 (08:48 UTC)


TAF: fraværende

Vejrobservationer og prognoser fra mere end 4000 lufthavne (METAR og TAF).

De gule og røde prikker repræsenterer de meteorologiske stationer.

Flyt musen over at se navnet på stationen.

Så klik over at se vejr observationer og prognoser.

At skifte det kort: Klik på de grønne knapper med et sort kors for at zoome ind; på den grønne knap med en bindestreg for at zoome ud; eller på de grønne pile for tilstødende kort.


METAR-TAF: